Gainesville, FL

3:14 AM EST on December 09, 2019 (GMT -0500)
Gainesville Regional

Weather History for KGNV - October, 2019

Change the Weather History Date:

Wednesday, October 9, 2019

  Actual Average Record
Temperature  
Mean Temperature 76 °F 73 °F  
Max Temperature 83 °F 83 °F 96 °F (1941)
Min Temperature 68 °F 63 °F 42 °F (2000)
Degree Days  
Heating Degree Days 0 0  
Month to date heating degree days 0 0  
Since 1 July heating degree days 0 0  
Cooling Degree Days 11 8  
Month to date cooling degree days 118 84  
Year to date cooling degree days 3134 2424  
Growing Degree Days 26 (Base 50)    
Moisture  
Dew Point 68 °F    
Average Humidity 78    
Maximum Humidity 93    
Minimum Humidity 63    
Precipitation  
Precipitation 0.00 in 0.11 in 1.47 in (2008)
Month to date precipitation 1.86 1.11  
Year to date precipitation 40.10 41.10  
Snow  
Snow 0.00 in 0.00 in 0.00 in ()
Month to date snowfall 0.0 0.0  
Since 1 July snowfall 0.0 0.0  
Since 1 September snowfall 0.0 0.0  
Snow Depth 0.00 in    
Sea Level Pressure  
Sea Level Pressure 30.03 in    
Wind  
Wind Speed 9 mph (NNE)    
Max Wind Speed 18 mph    
Max Gust Speed 22 mph    
Visibility 10 miles    
Events      
T = Trace of Precipitation, MM = Missing Value Source: NWS Daily Summary

Daily Weather History Graph

Daily Weather History Graph

Search for Another Location

Airport or City:

Astronomy

Oct. 09, 2019 Rise Set
Actual Time 7:26 AM EDT 7:05 PM EDT
Civil Twilight 7:02 AM EDT 7:29 PM EDT
Nautical Twilight 6:35 AM EDT 7:56 PM EDT
Astronomical Twilight 6:07 AM EDT 8:24 PM EDT
Moon 5:13 PM EDT 3:37 AM EDT
Length of Visible Light 12h 26m
Length of Day
11h 38m
Waxing Gibbous, 85% of the Moon is Illuminated
Oct 9
Waxing Gibbous
Oct 13
Full
Oct 21
Last Quarter
Oct 27
New
Nov 4
First Quarter

Hourly Weather History & Observations

Time (EDT) Temp. Heat Index Dew Point Humidity Pressure Visibility Wind Dir Wind Speed Gust Speed Precip Events Conditions
12:53 AM 72.0 °F - 69.1 °F 91% 29.99 in 10.0 mi NNW 3.5 mph - N/A   Overcast
1:53 AM 71.1 °F - 69.1 °F 93% 29.97 in 10.0 mi Calm Calm - N/A   Mostly Cloudy
2:53 AM 71.1 °F - 69.1 °F 93% 29.97 in 10.0 mi North 4.6 mph - N/A   Clear
3:53 AM 71.1 °F - 69.1 °F 93% 29.96 in 10.0 mi NNE 5.8 mph - N/A   Clear
4:53 AM 71.1 °F - 69.1 °F 93% 29.96 in 10.0 mi North 4.6 mph - N/A   Clear
5:53 AM 71.1 °F - 69.1 °F 93% 29.98 in 10.0 mi NNE 5.8 mph - N/A   Clear
6:53 AM 71.1 °F - 69.1 °F 93% 29.99 in 10.0 mi NNE 6.9 mph - N/A   Clear
7:53 AM 71.1 °F - 69.1 °F 93% 30.01 in 10.0 mi NNE 5.8 mph - N/A   Clear
8:53 AM 73.0 °F - 69.1 °F 87% 30.03 in 10.0 mi NE 9.2 mph - N/A   Clear
9:53 AM 75.0 °F - 70.0 °F 84% 30.05 in 10.0 mi NNE 10.4 mph - N/A   Scattered Clouds
10:53 AM 77.0 °F - 70.0 °F 79% 30.06 in 10.0 mi NE 11.5 mph - N/A   Overcast
11:21 AM 79.0 °F - 70.0 °F 74% 30.07 in 10.0 mi NE 12.7 mph - N/A   Mostly Cloudy
11:53 AM 80.1 °F 82.9 °F 69.1 °F 69% 30.06 in 10.0 mi NE 12.7 mph - N/A   Scattered Clouds
12:33 PM 81.0 °F 84.1 °F 69.1 °F 67% 30.06 in 10.0 mi NNE 13.8 mph - N/A   Mostly Cloudy
12:40 PM 81.0 °F 84.1 °F 69.1 °F 67% 30.06 in 10.0 mi NNE 13.8 mph 21.9 mph N/A   Scattered Clouds
12:53 PM 81.0 °F 84.1 °F 69.1 °F 67% 30.05 in 10.0 mi NNE 12.7 mph - N/A   Partly Cloudy
1:41 PM 81.0 °F 84.1 °F 69.1 °F 67% 30.05 in 10.0 mi NE 12.7 mph - N/A   Mostly Cloudy
1:53 PM 82.0 °F 84.9 °F 68.0 °F 62% 30.04 in 10.0 mi NE 12.7 mph - N/A   Mostly Cloudy
3:53 PM 82.0 °F 84.9 °F 68.0 °F 62% 30.00 in 10.0 mi ENE 11.5 mph - N/A   Partly Cloudy
4:53 PM 79.0 °F - 66.0 °F 64% 30.01 in 10.0 mi ENE 13.8 mph - N/A   Clear
5:53 PM 77.0 °F - 66.0 °F 69% 30.02 in 10.0 mi ENE 11.5 mph - N/A   Clear
6:53 PM 75.0 °F - 66.0 °F 73% 30.02 in 10.0 mi NE 10.4 mph - N/A   Clear
7:53 PM 73.0 °F - 66.0 °F 79% 30.04 in 10.0 mi NE 8.1 mph - N/A   Clear
8:53 PM 72.0 °F - 66.0 °F 81% 30.05 in 10.0 mi NNE 6.9 mph - N/A   Clear
9:53 PM 70.0 °F - 64.9 °F 84% 30.06 in 10.0 mi NNE 8.1 mph - N/A   Clear
10:53 PM 69.1 °F - 64.9 °F 87% 30.07 in 10.0 mi NNE 8.1 mph - N/A   Clear
11:53 PM 69.1 °F - 64.9 °F 87% 30.07 in 10.0 mi North 9.2 mph - N/A   Clear